This is the latest recevied weather packets stored in our database for station/object KO4LCK. If no packets are shown the sender has not sent any weather packets the latest 10 day(s).
| Time | Temp. | Humidity | Pressure | Rain* | Wind** | Luminosity | Snow |
|---|---|---|---|---|---|---|---|
| 1787947193 | 34.44° C | 44% | 1016.5 hPa | 0 mm | - | 636 W/m² | - |
| 1787946893 | 34.44° C | 47% | 1016.5 hPa | 0 mm | - | 652 W/m² | - |
| 1787946590 | 33.33° C | 47% | 1016.7 hPa | 0 mm | - | 676 W/m² | - |
| 1787946286 | 33.89° C | 45% | 1016.8 hPa | 0 mm | - | 147 W/m² | - |
| 1787945985 | 33.89° C | 47% | 1016.8 hPa | 0 mm | - | 716 W/m² | - |
| 1787945680 | 33.33° C | 47% | 1016.9 hPa | 0 mm | - | 707 W/m² | - |
| 1787945380 | 34.44° C | 48% | 1016.8 hPa | 0 mm | - | 152 W/m² | - |
| 1787945076 | 35° C | 48% | 1017 hPa | 0 mm | - | 177 W/m² | - |
| 1787944773 | 35° C | 45% | 1017.3 hPa | 0 mm | - | 747 W/m² | - |
| 1787944469 | 35° C | 47% | 1017.3 hPa | 0 mm | - | 724 W/m² | - |
| 1787944164 | 35° C | 47% | 1017.4 hPa | 0 mm | - | 731 W/m² | - |
| 1787943858 | 33.89° C | 49% | 1017.3 hPa | 0 mm | - | 745 W/m² | - |
| 1787943555 | 33.33° C | 51% | 1017.5 hPa | 0 mm | - | 768 W/m² | - |
| 1787943255 | 35° C | 50% | 1017.5 hPa | 0 mm | - | 815 W/m² | - |
| 1787942954 | 33.89° C | 42% | 1017.7 hPa | 0 mm | - | 821 W/m² | - |
| 1787942650 | 33.89° C | 42% | 1017.7 hPa | 0 mm | - | 821 W/m² | - |
| 1787942349 | 33.89° C | 48% | 1017.9 hPa | 0 mm | - | 827 W/m² | - |
| 1787942045 | 33.89° C | 48% | 1017.9 hPa | 0 mm | - | 827 W/m² | - |
| 1787941740 | 34.44° C | 47% | 1017.6 hPa | 0 mm | - | 800 W/m² | - |
| 1787941439 | 33.33° C | 46% | 1017.8 hPa | 0 mm | - | 795 W/m² | - |
| 1787941138 | 32.78° C | 49% | 1017.8 hPa | 0 mm | - | 793 W/m² | - |
| 1787940833 | 32.22° C | 54% | 1018 hPa | 0 mm | - | 639 W/m² | - |
| 1787940530 | 31.67° C | 55% | 1017.9 hPa | 0 mm | - | 847 W/m² | - |
| 1787940225 | 32.78° C | 54% | 1018.1 hPa | 0 mm | - | 295 W/m² | - |
| 1787939920 | 32.22° C | 55% | 1017.8 hPa | 0 mm | - | 882 W/m² | - |
* Rain latest hour (hover to see other rain measurements)
** Current wind speed in m/s (hover to see current wind gust speed)